2023-007H (55255 NORAD) Tracking and Keplerian Element Data

This shows tracking and keplerian element data for the satellite.

Feedback or suggestion? Click here.




ElementValue
Catalog55255
Name2023-007H
Epoch Orbit1701
Epoch Day126.45906986
Epoch Year2023
RAAN199.9193
Inclination97.3553
Eccentricity0.000748
Argument of Perigee224.9168
Mean Anonmoly259.1935
Mean Motion15.35202735
Decay Rate0.00041106
L11 55255U 23007H 23126.45906986 .00041106 00000+0 11992-2 0 9990
L22 55255 97.3553 199.9193 0007480 224.9168 259.1935 15.35202735 17014



Live tracking and technical data element details for 2023-007H (NORAD 55255). 2023-007H can be tracked NOW for your location showing map with azimuth and elevation plus other details from your city location.







IsCatalogInMostPopularTable: catalog: 55255, numindb: -1

Insert: records affected: 1


GetName: 55255 2023-007H

Hit Count: inserted at: Mon, 05 Jun 2023 19:07:35 GMT